Flag for Botswana Weather past 2 weeks in Francistown, Botswana

Now
64 °F

Clear.


Feels Like: 64 °F
Forecast: 53 / 81 °F
Wind: 8 mph from East

Location: Francistown Airport


UV Index: 7 (High)

Visibility: 10 mi


Pressure: 30.12 "Hg

Humidity: 60%

Dew point: 50 °F

Location of FrancistownLocation

Historic Weather in Francistown

°F

Francistown temperature yesterday

Maximum temperature yesterday: 82 °F (at 2:00 PM)
Minimum temperature yesterday: 48 °F (at 6:00 AM)
Average temperature yesterday: 65 °F

Past Weeks' High & Low Weather Summary

 TemperatureHumidityPressure
High82 °F (Apr 19, 3:00 PM)100% (Apr 12, 7:00 AM)30.33 "Hg (Apr 12, 7:00 AM)
Low46 °F (Apr 18, 5:00 AM)30% (Apr 19, 3:00 PM)30.04 "Hg (Apr 15, 3:00 PM)
Average65 °F76%30.21 "Hg
* Reported Apr 6 4:00 AM — Apr 21 2:00 AM, Francistown, Weather by CustomWeather, © 2014

Note: Actual official high and low records may vary slightly from our data, if they occured in-between our weather recording intervals... More about our weather records

Advertising

Historic Weather Conditions — Data for Previous 24 hours

 ConditionsComfort  
Time TempWeatherWind HumidityBarometerVisibility
2:00 AM
Apr 21
64 °FClear.8 mph60%30.12 "Hg10 mi
1:00 AM68 °FClear.7 mph49%30.15 "Hg10 mi
12:00 AM64 °FClear.7 mph56%30.15 "Hg10 mi
11:00 PM
Apr 20
54 °FClear.7 mph88%30.15 "Hg10 mi
10:00 PM61 °FClear.2 mph68%30.15 "Hg10 mi
9:00 PM61 °FClear.5 mph72%30.15 "Hg10 mi
8:00 PM63 °FClear.7 mph68%30.15 "Hg10 mi
7:00 PM68 °FClear.6 mph60%30.15 "Hg10 mi
6:00 PM75 °FClear.6 mph39%30.15 "Hg10 mi
5:00 PM81 °FPassing clouds.7 mph39%30.12 "HgN/A
4:00 PM82 °FSunny.10 mph30%30.12 "Hg10 mi
3:00 PM82 °FPassing clouds.13 mph30%30.15 "HgN/A
2:00 PM82 °FSunny.13 mph32%30.15 "Hg10 mi
11:00 AM81 °FSunny.13 mph34%30.24 "Hg10 mi
9:00 AM72 °FSunny.6 mph57%30.27 "Hg10 mi
8:00 AM57 °FSunny.2 mph82%30.24 "Hg10 mi
6:00 AM48 °FSunny.1 mph94%30.21 "Hg10 mi
4:00 AM52 °FClear.2 mph88%30.21 "Hg10 mi
3:00 AM52 °FClear.1 mph94%30.21 "Hg10 mi
2:00 AM55 °FClear.3 mph82%30.21 "Hg10 mi
Weather by CustomWeather, © 2014

See weather overview